Location: Mentone
(34.5413°N, 85.5351°W)
Time: 12:50:11
(UTC-05:00)

Centaur AC-72 - Visible Passes

Search period start: 06 July 2015 00:00
Search period end: 16 July 2015 00:00
Orbit: 1078 x 35278 km, 18.9° (Epoch: 04 July)

Date Brightness Start Highest point End Pass type
(mag) Time Alt. Az. Time Alt. Az. Time Alt. Az.
06 Jul 6.2 02:38:15 25° S 02:39:59 26° S 12:20:53 10° ESE visible
06 Jul5.323:55:12ESE23:55:12ESE23:33:16WSWvisible
07 Jul 4.1 20:40:08 10° WSW 20:45:52 23° S 20:49:56 12° SE visible
09 Jul 6.2 05:10:18 10° SW 14:46:16 34° S 15:06:03 10° ESE visible
10 Jul 6.4 02:24:31 24° S 02:24:31 24° S 12:05:16 10° ESE visible
10 Jul5.123:41:28ESE23:41:28ESE23:18:17SWvisible
11 Jul 4.1 20:24:03 10° WSW 20:30:01 23° S 20:34:32 10° SE visible
13 Jul 6.3 04:54:50 10° SW 14:30:03 35° S 14:50:24 10° ESE visible
14 Jul 6.6 02:10:53 23° S 02:10:53 23° S 11:49:38 10° ESE visible
